Vertical_Velocity
-0 -0 -1 -2 -0 2 -1 0 -1 1 1 -1 1 0 -1 -0 2 1 -4 0 -3 -1 1 8 4 -1 2 -0 3 8 -19 19 -4 -5 11 13 -6 -2 -7 -1 -7 -6 12 32 -7
1 0 -3 -2 0 -2 0 -1 1 0 0 -0 2 -1 -2 -1 2 1 3 -1 4 8 4 7 4 4 -1 3 -4 -1 -13 39 18 -1 3 7 1 1 -8 0 -4 -3 2 -15 15
-0 -2 -2 -3 1 -0 -0 -1 1 -1 0 -0 2 -0 -1 -0 3 1 1 0 -3 6 1 -0 8 2 1 6 -5 -6 -19 8 5 2 13 -1 1 -8 -10 -9 -7 6 7 -5 -3
2 -0 2 -2 -2 3 -2 -0 -1 2 1 0 1 1 3 2 1 -3 -2 -4 -6 -1 1 -0 3 -6 7 -13 8 -8 2 14 12 6 13 -3 0 -0 -8 -2 5 5 3 -0 -29
2 -0 3 -2 -2 1 -0 -0 -2 0 2 1 0 1 1 1 2 -0 0 -3 -5 -2 1 3 1 -0 -1 7 2 -6 4 -9 4 27 4 -1 -2 -3 -3 -2 -4 4 4 -1 3
1 -1 1 -2 -1 0 0 -0 -2 2 0 0 -1 3 3 1 2 -1 1 -1 0 0 -1 -3 2 7 -3 5 -12 -4 2 5 -5 24 3 -2 -2 2 -0 -2 -2 3 6 7 1
-1 1 3 -3 -1 0 -1 1 -1 2 0 0 1 1 1 -1 -2 1 0 -1 -2 2 11 1 11 0 -0 2 6 -2 3 -8 2 19 54 0 2 -5 1 -0 -4 3 3 6 2
-3 1 -0 0 -4 0 -0 0 0 3 1 -2 2 2 2 1 -0 2 1 -1 -0 -0 0 0 1 3 -0 2 7 -8 4 -10 -5 1 33 9 -9 -7 -4 -1 -2 2 5 11 14
-3 3 -2 -0 -3 -1 2 1 1 2 1 0 0 3 -1 -0 1 -2 2 -1 0 -3 1 -1 2 -0 -1 -0 8 5 -15 -10 6 53 -4 7 4 -4 -2 -3 -0 1 -2 -7 8
-2 -1 -1 -1 -2 -1 1 2 2 1 -0 1 2 1 1 -4 2 1 -1 -1 -2 0 -0 2 -2 7 14 -2 -14 -21 -7 -1 -1 14 41 20 -7 8 -0 -2 -4 -2 3 -2 -6
-2 4 -0 -2 -0 0 2 4 0 2 1 -1 -1 -4 -12 -8 -4 -8 -1 -3 -1 -0 0 -7 -8 11 23 3 -9 7 8 8 -9 13 20 -0 24 -8 8 0 -2 -2 -4 -1 2
-3 5 5 -3 2 2 1 3 1 6 -4 -3 -3 -12 -10 -8 -6 -3 2 5 0 -3 -7 3 18 -7 7 6 -3 3 2 8 8 8 -7 -3 4 -10 -11 -4 -3 -2 0 1 1
1 3 6 -1 1 0 4 6 1 2 -1 -5 -6 -10 -2 -5 -1 7 15 -4 -8 -4 2 2 -0 -1 -0 -7 -4 3 6 -3 -1 8 8 4 21 -1 3 -3 -3 -1 -2 -5 1
-2 9 -2 2 2 2 3 4 2 1 -1 -7 -10 -8 -7 -0 -5 -3 1 -0 8 2 -2 -3 -5 21 9 -6 -3 -4 -2 8 14 0 2 5 8 15 13 5 -7 2 -1 3 6
2 14 -8 2 1 2 5 3 2 1 -3 -6 -9 -5 -3 -3 0 1 -10 -9 1 -1 -11 1 22 38 1 -3 2 -3 -4 -5 -10 -2 7 4 1 8 -9 -11 0 -1 3 2 3
8 11 -5 1 1 3 3 5 5 -0 -5 -9 -7 -8 -4 -1 2 -6 -4 1 -4 8 6 -8 -13 8 2 2 2 -9 -12 -14 -6 -2 5 8 2 4 -2 7 -9 -12 0 7 1
3 5 -2 2 2 2 1 4 3 -1 -1 -4 -7 -3 -10 -5 -1 -6 -6 -2 -5 -12 6 10 3 2 -4 4 6 6 -2 -15 -9 -0 -6 4 -3 -6 10 1 -4 -6 -5 -5 -2
2 3 1 1 2 1 1 1 6 2 -2 -2 -4 -4 -4 -1 -9 -7 -5 -5 0 -5 -1 -3 1 4 -1 8 6 6 5 0 -6 -8 -8 -5 -3 -0 3 -0 0 1 8 5 3
12 1 1 1 4 -1 2 1 2 2 0 -3 -2 -5 -4 -3 -4 -1 -4 -2 -5 -1 2 -2 2 3 2 -0 -1 6 1 2 4 4 -1 -0 -11 -13 -5 -4 4 1 -0 -1 0
7 4 0 1 2 2 2 2 -0 -0 -5 -3 0 -5 -5 -3 -4 6 4 1 0 -3 -3 -1 -1 -1 2 1 3 2 -4 -2 5 10 4 0 -1 2 5 8 -1 -3 -1 0 -1
2 3 -2 2 1 4 1 2 1 1 -0 -3 -5 -3 -6 -1 -2 1 -0 -2 0 -2 -4 -2 -0 -0 1 1 -6 -4 -5 -10 -18 -11 -4 6 -0 2 -1 -2 -7 -8 -2 1 -0
5 3 1 2 1 4 1 3 2 1 0 -3 -6 -2 -1 -3 -0 0 2 -2 -3 0 2 -0 0 -2 0 -0 -0 3 0 -3 -4 -0 -4 -3 -1 -0 -1 0 -4 0 -0 -3 -6
11 -2 2 0 2 3 2 3 1 1 1 -1 -3 -2 -2 -2 2 -2 -2 -3 -5 -0 1 3 -0 1 -2 -1 -0 -0 -1 1 -1 1 2 4 1 4 5 3 4 3 2 -1 2
0 -1 3 2 2 2 3 1 1 1 -0 -3 -3 -5 -3 -3 -0 -5 -2 -1 -1 -0 -2 -3 -3 -2 -0 -1 -2 -2 -1 -0 0 -2 -1 2 2 6 4 1 -1 -1 -2 -6 -7
-7 3 1 6 3 2 4 1 0 -1 -3 -3 -2 -1 -1 0 -3 -4 -1 -2 -0 -2 -1 -2 1 -1 -3 -3 -3 -5 -4 -4 -5 -5 -3 2 -8 -1 -7 -15 -12 -6 -5 -2 1
-5 1 1 3 7 0 3 1 0 1 -0 -1 -1 -1 -0 -1 -2 1 -1 -0 -0 -2 1 -3 -3 -2 -1 -1 -2 -0 -1 2 1 1 1 -7 5 -13 0 -0 -3 -4 -1 3 4
-2 1 3 1 2 3 0 0 2 2 -2 -1 -1 -3 -3 1 -2 -0 -3 -2 -3 -4 -2 -4 -3 -2 -1 -1 1 -6 -4 -3 -7 -6 -1 -1 7 -4 1 -4 -2 -3 -2 1 -3
Height
5753 5750 5749 5747 5741 5735 5731 5725 5721 5714 5705 5696 5686 5676 5668 5660 5653 5647 5645 5644 5642 5640 5641 5643 5646 5650 5653 5658 5666 5678 5684 5690 5709 5714 5733 5739 5743 5749 5758 5764 5769 5776 5783 5793 5796
5746 5743 5741 5739 5734 5728 5724 5717 5712 5705 5697 5686 5675 5665 5655 5647 5640 5636 5631 5628 5626 5622 5626 5627 5631 5635 5642 5648 5652 5659 5673 5678 5696 5712 5721 5731 5737 5743 5752 5758 5763 5772 5777 5782 5793
5741 5737 5735 5730 5727 5720 5716 5710 5703 5696 5687 5676 5664 5654 5643 5635 5627 5621 5614 5607 5602 5599 5597 5602 5609 5616 5626 5634 5642 5652 5663 5675 5689 5702 5714 5721 5729 5736 5747 5755 5762 5771 5777 5780 5787
5733 5730 5728 5724 5720 5714 5709 5703 5696 5687 5678 5666 5653 5642 5630 5621 5616 5603 5595 5586 5579 5575 5573 5576 5584 5595 5609 5623 5634 5642 5658 5670 5685 5694 5705 5713 5724 5734 5744 5754 5760 5766 5770 5773 5778
5726 5723 5719 5716 5713 5708 5701 5695 5688 5679 5668 5654 5643 5630 5617 5608 5600 5587 5579 5570 5562 5559 5560 5561 5565 5578 5593 5611 5621 5632 5649 5664 5675 5687 5699 5708 5718 5728 5739 5747 5754 5760 5767 5770 5775
5719 5718 5713 5709 5706 5701 5695 5688 5680 5670 5659 5645 5633 5618 5605 5596 5586 5577 5568 5560 5553 5552 5551 5553 5558 5568 5580 5600 5613 5630 5646 5658 5673 5682 5693 5702 5713 5723 5733 5740 5746 5755 5762 5768 5773
5712 5709 5707 5703 5699 5695 5689 5681 5672 5662 5650 5636 5622 5606 5595 5585 5575 5567 5559 5552 5549 5550 5552 5553 5557 5563 5576 5594 5610 5620 5638 5650 5665 5678 5685 5696 5706 5714 5726 5735 5741 5749 5756 5762 5769
5705 5703 5701 5697 5693 5689 5682 5675 5665 5655 5643 5628 5612 5596 5585 5573 5565 5561 5555 5550 5549 5550 5552 5554 5557 5563 5572 5588 5605 5615 5631 5641 5657 5665 5679 5686 5699 5710 5720 5730 5736 5742 5753 5760 5765
5697 5698 5696 5691 5687 5683 5677 5669 5659 5649 5636 5621 5604 5589 5577 5566 5560 5555 5552 5550 5551 5552 5554 5556 5558 5563 5572 5586 5599 5607 5623 5637 5646 5657 5671 5683 5695 5706 5714 5724 5732 5738 5745 5755 5763
5691 5691 5689 5685 5681 5677 5672 5663 5654 5644 5630 5615 5598 5585 5573 5564 5554 5550 5550 5551 5553 5555 5557 5560 5561 5564 5572 5582 5593 5606 5620 5634 5647 5656 5664 5682 5690 5702 5711 5720 5728 5734 5741 5749 5758
5684 5684 5683 5680 5677 5672 5667 5659 5652 5640 5626 5609 5594 5581 5575 5567 5559 5554 5554 5555 5557 5558 5560 5563 5568 5570 5577 5590 5602 5616 5633 5641 5650 5658 5663 5676 5688 5697 5706 5715 5725 5731 5736 5744 5754
5676 5677 5678 5676 5672 5668 5664 5656 5647 5637 5623 5607 5594 5587 5580 5573 5567 5562 5560 5559 5559 5562 5565 5568 5571 5575 5582 5594 5606 5617 5630 5640 5653 5661 5664 5669 5681 5688 5702 5711 5719 5728 5734 5739 5746
5668 5670 5671 5672 5669 5665 5660 5654 5645 5635 5624 5609 5598 5591 5586 5581 5576 5572 5568 5566 5567 5569 5570 5573 5577 5581 5590 5600 5611 5620 5631 5639 5649 5657 5665 5670 5673 5685 5697 5706 5714 5724 5731 5736 5740
5660 5662 5665 5666 5666 5661 5658 5651 5643 5635 5623 5613 5603 5597 5593 5588 5584 5579 5573 5572 5572 5576 5579 5581 5585 5590 5599 5608 5617 5625 5632 5643 5653 5661 5665 5670 5674 5683 5692 5703 5709 5718 5725 5733 5737
5652 5655 5660 5662 5661 5659 5656 5649 5641 5634 5624 5615 5609 5605 5601 5597 5592 5586 5584 5584 5585 5585 5588 5593 5597 5601 5606 5613 5621 5631 5638 5645 5650 5658 5667 5669 5675 5680 5690 5702 5708 5715 5721 5727 5734
5643 5650 5655 5658 5656 5657 5653 5647 5640 5636 5624 5616 5613 5611 5608 5602 5597 5593 5592 5595 5594 5593 5596 5600 5605 5608 5612 5619 5627 5633 5641 5649 5656 5659 5663 5668 5675 5683 5691 5699 5704 5709 5715 5721 5727
5636 5644 5650 5653 5653 5653 5651 5646 5642 5635 5624 5620 5616 5615 5614 5610 5606 5602 5602 5603 5604 5606 5606 5608 5613 5616 5620 5625 5631 5637 5643 5651 5657 5660 5666 5672 5676 5684 5688 5696 5702 5708 5713 5717 5722
5630 5639 5645 5647 5649 5650 5649 5646 5641 5634 5624 5621 5620 5620 5619 5617 5614 5612 5612 5612 5612 5614 5616 5618 5620 5622 5626 5631 5635 5638 5647 5651 5655 5662 5667 5673 5678 5682 5690 5695 5702 5707 5711 5714 5717
5625 5633 5640 5642 5646 5648 5647 5643 5640 5635 5626 5624 5623 5623 5623 5624 5621 5620 5621 5621 5621 5621 5623 5623 5625 5628 5632 5635 5639 5643 5650 5655 5658 5664 5669 5674 5679 5684 5688 5694 5699 5702 5706 5709 5711
5619 5627 5635 5638 5643 5645 5646 5642 5640 5635 5629 5627 5628 5627 5627 5627 5628 5626 5627 5627 5628 5628 5629 5630 5631 5633 5636 5638 5642 5647 5652 5656 5660 5665 5669 5673 5677 5682 5685 5689 5692 5695 5697 5701 5705
5614 5625 5631 5636 5641 5642 5644 5641 5640 5636 5632 5629 5629 5630 5630 5630 5631 5632 5633 5633 5632 5633 5634 5635 5636 5638 5640 5642 5645 5649 5652 5655 5660 5665 5668 5672 5676 5678 5681 5683 5685 5688 5691 5695 5698
5611 5622 5627 5634 5639 5640 5642 5641 5640 5638 5635 5632 5630 5633 5634 5634 5635 5635 5636 5637 5637 5638 5638 5639 5639 5640 5643 5646 5649 5652 5654 5657 5660 5665 5667 5670 5674 5676 5677 5678 5680 5683 5686 5689 5692
5609 5618 5625 5631 5636 5638 5641 5642 5641 5640 5638 5634 5632 5635 5635 5636 5637 5637 5638 5639 5640 5641 5641 5642 5643 5645 5646 5649 5650 5652 5654 5656 5659 5661 5663 5666 5669 5671 5672 5674 5676 5678 5680 5682 5685
5608 5617 5624 5629 5634 5637 5640 5642 5642 5642 5641 5638 5636 5636 5637 5638 5638 5638 5639 5641 5642 5642 5644 5646 5646 5647 5648 5650 5651 5651 5652 5654 5656 5659 5660 5662 5663 5664 5664 5665 5666 5669 5671 5674 5676
5607 5616 5622 5628 5633 5637 5640 5642 5642 5644 5644 5641 5638 5637 5638 5639 5640 5640 5640 5641 5642 5642 5643 5644 5645 5647 5648 5648 5649 5650 5652 5653 5654 5655 5656 5657 5658 5657 5656 5658 5660 5663 5665 5667 5668
5606 5614 5620 5626 5632 5636 5640 5641 5642 5644 5645 5644 5642 5640 5640 5639 5641 5641 5642 5642 5643 5643 5643 5644 5644 5644 5646 5647 5648 5650 5651 5653 5653 5653 5654 5654 5655 5652 5654 5655 5656 5656 5657 5658 5660
5604 5612 5620 5625 5630 5636 5639 5641 5643 5644 5646 5646 5645 5644 5643 5643 5642 5642 5643 5642 5643 5643 5642 5643 5642 5643 5645 5645 5646 5648 5648 5649 5649 5649 5649 5649 5649 5649 5648 5648 5648 5649 5648 5649 5649